User: anonymous   Login
Location: Unspecified
(0.0000°N, 0.0000°E)
Time: 02:13:13
(UTC+00:00)
Language:

KORONAS-FOTON - Orbit

View from above orbital plane
View from above orbital plane
View from above satellite
View from above satellite

Ground track
Ground track

The orbit data is extracted from the following two-line orbital elements,

1 33504U 09003A   17081.76441494 +.00000203 +00000-0 +91822-5 0  9995
2 33504 082.4428 318.8605 0020749 051.5611 308.7479 15.14726955448297
Epoch (UTC): 22 March 2017 18:20:45
Eccentricity: 0.0020749
inclination: 82.4428°
perigee height: 507 km
apogee height: 536 km
right ascension of ascending node: 318.8605°
argument of perigee: 51.5611°
revolutions per day: 15.14726955
mean anomaly at epoch: 308.7479°
orbit number at epoch: 44829

The dashed part of the orbit path shows where the satellite is in the earth's shadow,  

DLR